Date String (YYYY-MM-DD hh:mm:ss) UTC,Instrument flags,Ambient pressure (hPa),Sample flow (lpm),Bypass flow (lpm),Sample temperature (°C),Ambient temperature (°C),ASC tube jacket temperature (°C),LED temperature (°C),Box temperature (°C),Sample RH (%),Span deviation,Mass concentration (μg/m³),Mass concentration (μg/m³),Mass concentration (μg/m³)
DateTimeUTC,F1_M11,P_M11,Q1_M11,Q2_M11,T1_M11,T2_M11,T3_M11,T4_M11,T5_M11,U1_M11,ZSPAN_M11,X0_M11,X2_M11,X1_M11
2021-12-27 14:00:00,,0816.9,4.99,0.00,22.5,22.4,00.0,31.3,24.2,10.4,0000.0,0006.11,0001.53,0000.81
2021-12-27 14:01:00,,0817.1,5.00,0.00,22.4,22.2,00.0,31.3,24.2,10.3,0000.0,0006.46,0001.52,0000.80
2021-12-27 14:02:00,,0817.5,5.02,0.00,22.4,22.1,00.0,31.3,24.1,10.3,0000.0,0006.55,0001.54,0000.79
2021-12-27 14:03:00,,0817.2,4.99,0.00,22.4,22.0,00.0,31.3,24.1,10.3,0000.0,0006.43,0001.49,0000.78
2021-12-27 14:04:00,,0817.0,5.01,0.00,22.4,21.9,00.0,31.3,24.0,10.3,0000.0,0006.24,0001.45,0000.77
2021-12-27 14:05:00,,0816.9,4.99,0.00,22.4,21.8,00.0,31.3,24.0,10.2,0000.0,0006.54,0001.39,0000.75
2021-12-27 14:06:00,,0817.0,5.01,0.00,22.4,21.7,00.0,31.3,24.0,10.2,0000.0,0006.36,0001.41,0000.76
2021-12-27 14:07:00,,0817.1,4.98,0.00,22.3,21.7,00.0,31.3,24.0,10.2,0000.0,0005.78,0001.44,0000.78
2021-12-27 14:08:00,,0817.1,5.00,0.00,22.3,21.6,00.0,31.3,23.9,10.3,0000.0,0005.63,0001.43,0000.80
2021-12-27 14:09:00,,0816.8,4.99,0.00,22.3,21.6,00.0,31.3,23.9,10.3,0000.0,0005.02,0001.39,0000.80
2021-12-27 14:10:00,,0816.8,5.00,0.00,22.3,21.6,00.0,31.3,23.9,10.4,0000.0,0004.95,0001.40,0000.80
2021-12-27 14:11:00,,0817.0,5.00,0.00,22.3,21.6,00.0,31.3,23.9,10.4,0000.0,0004.87,0001.40,0000.81
2021-12-27 14:12:00,,0817.3,4.99,0.00,22.3,21.5,00.0,31.3,23.9,10.3,0000.0,0004.47,0001.39,0000.80
2021-12-27 14:13:00,,0816.9,5.02,0.00,22.2,21.5,00.0,31.3,23.8,10.4,0000.0,0004.49,0001.38,0000.80
2021-12-27 14:14:00,,0816.9,4.99,0.00,22.2,21.5,00.0,31.3,23.8,10.4,0000.0,0004.82,0001.41,0000.80
2021-12-27 14:15:00,,0816.9,5.00,0.00,22.2,21.5,00.0,31.2,23.8,10.3,0000.0,0005.00,0001.44,0000.80
2021-12-27 14:16:00,,0817.0,5.00,0.00,22.2,22.0,00.0,31.3,24.0,10.2,0000.0,0003.93,0001.46,0000.82
2021-12-27 14:17:00,,0817.2,4.99,0.00,22.4,22.8,00.0,31.3,24.2,10.0,0000.0,0003.42,0001.40,0000.79
2021-12-27 14:18:00,,0817.0,5.00,0.00,22.5,23.2,00.0,31.3,24.4,09.9,0000.0,0003.27,0001.32,0000.75
2021-12-27 14:19:00,,0816.8,5.01,0.00,22.6,23.0,00.0,31.4,24.4,10.0,0000.0,0003.32,0001.31,0000.72
2021-12-27 14:20:00,,0817.2,4.99,0.00,22.6,22.8,00.0,31.4,24.4,10.1,0000.0,0003.40,0001.32,0000.71
2021-12-27 14:21:00,,0817.2,5.02,0.00,22.5,22.6,00.0,31.4,24.3,10.1,0000.0,0003.36,0001.30,0000.69
2021-12-27 14:22:00,,0816.9,4.98,0.00,22.5,22.4,00.0,31.4,24.2,10.2,0000.0,0003.20,0001.24,0000.68
2021-12-27 14:23:00,,0816.8,5.02,0.00,22.5,22.2,00.0,31.4,24.2,10.1,0000.0,0003.07,0001.21,0000.65
2021-12-27 14:24:00,,0816.9,4.99,0.00,22.5,22.1,00.0,31.4,24.1,10.1,0000.0,0002.90,0001.17,0000.64
2021-12-27 14:25:00,,0817.2,5.01,0.00,22.4,21.9,00.0,31.4,24.1,10.0,0000.0,0002.60,0001.10,0000.62
2021-12-27 14:26:00,,0816.9,4.99,0.00,22.4,21.9,00.0,31.4,24.0,09.9,0000.0,0002.28,0001.07,0000.59
2021-12-27 14:27:00,,0816.8,5.02,0.00,22.4,21.8,00.0,31.4,24.0,09.8,0000.0,0002.07,0000.99,0000.56
2021-12-27 14:28:00,,0816.6,4.99,0.00,22.3,21.7,00.0,31.4,24.0,09.8,0000.0,0001.90,0000.94,0000.53
2021-12-27 14:29:00,,0816.8,5.00,0.00,22.3,21.7,00.0,31.4,23.9,09.7,0000.0,0001.72,0000.90,0000.53
2021-12-27 14:30:00,,0816.6,5.00,0.00,22.3,21.6,00.0,31.4,23.9,09.8,0000.0,0001.67,0000.83,0000.52
2021-12-27 14:31:00,,0816.4,5.02,0.00,22.3,21.5,00.0,31.3,23.9,09.8,0000.0,0001.65,0000.74,0000.49
2021-12-27 14:32:00,,0816.5,4.98,0.00,22.2,21.5,00.0,31.3,23.8,09.8,0000.0,0001.54,0000.69,0000.46
2021-12-27 14:33:00,,0816.6,5.01,0.00,22.2,21.5,00.0,31.3,23.8,10.0,0000.0,0001.48,0000.67,0000.45
2021-12-27 14:34:00,,0816.6,4.99,0.00,22.1,21.3,00.0,31.3,23.7,10.1,0000.0,0001.73,0000.77,0000.48
2021-12-27 14:35:00,,0816.6,5.00,0.00,22.1,21.3,00.0,31.3,23.6,10.1,0000.0,0002.25,0000.83,0000.51
2021-12-27 14:36:00,,0816.6,5.00,0.00,22.1,21.9,00.0,31.3,23.8,10.0,0000.0,0002.33,0000.88,0000.53
2021-12-27 14:37:00,,0816.6,4.99,0.00,22.3,22.7,00.0,31.3,24.1,10.0,0000.0,0002.39,0000.92,0000.56
2021-12-27 14:38:00,,0816.9,5.01,0.00,22.4,23.2,00.0,31.4,24.3,09.9,0000.0,0002.70,0001.01,0000.60
2021-12-27 14:39:00,,0816.7,5.00,0.00,22.5,23.0,00.0,31.4,24.3,09.9,0000.0,0002.92,0001.13,0000.63
2021-12-27 14:40:00,,0816.5,4.99,0.00,22.4,22.6,00.0,31.4,24.1,09.9,0000.0,0003.06,0001.19,0000.65
2021-12-27 14:41:00,,0816.5,5.00,0.00,22.3,22.3,00.0,31.3,24.0,09.8,0000.0,0002.93,0001.25,0000.65
2021-12-27 14:42:00,,0816.4,4.99,0.00,22.3,22.1,00.0,31.3,23.9,09.8,0000.0,0002.91,0001.29,0000.67
2021-12-27 14:43:00,,0816.5,5.02,0.00,22.2,21.8,00.0,31.3,23.7,09.8,0000.0,0002.96,0001.31,0000.67
2021-12-27 14:44:00,,0816.5,4.98,0.00,22.1,21.6,00.0,31.3,23.6,09.8,0000.0,0002.96,0001.32,0000.67
2021-12-27 14:45:00,,0816.4,5.01,0.00,22.0,21.4,00.0,31.3,23.5,09.9,0000.0,0002.70,0001.19,0000.62
2021-12-27 14:46:00,,0816.4,5.00,0.00,22.0,21.3,00.0,31.2,23.4,09.9,0000.0,0002.16,0001.11,0000.58
2021-12-27 14:47:00,,0816.3,5.01,0.00,21.9,21.2,00.0,31.2,23.4,09.9,0000.0,0002.14,0001.07,0000.55
2021-12-27 14:48:00,,0816.3,4.99,0.00,21.9,21.1,00.0,31.2,23.4,09.9,0000.0,0001.98,0000.99,0000.52
2021-12-27 14:49:00,,0816.3,5.01,0.00,21.9,21.1,00.0,31.1,23.4,10.0,0000.0,0001.73,0000.92,0000.48
2021-12-27 14:50:00,,0816.3,5.01,0.00,21.8,21.1,00.0,31.1,23.4,10.1,0000.0,0001.52,0000.83,0000.45
2021-12-27 14:51:00,,0816.3,4.99,0.00,21.8,21.0,00.0,31.1,23.4,10.1,0000.0,0001.42,0000.77,0000.43
2021-12-27 14:52:00,,0816.3,5.01,0.00,21.8,21.5,00.0,31.1,23.5,10.2,0000.0,0001.34,0000.74,0000.42
2021-12-27 14:53:00,,0816.3,4.99,0.00,22.0,22.6,00.0,31.1,23.9,10.3,0000.0,0001.67,0000.76,0000.43
2021-12-27 14:54:00,,0816.3,4.99,0.00,22.2,23.4,00.0,31.2,24.2,10.1,0000.0,0002.86,0000.81,0000.46
2021-12-27 14:55:00,,0816.4,5.01,0.00,22.3,23.2,00.0,31.2,24.2,10.1,0000.0,0002.99,0000.88,0000.51
2021-12-27 14:56:00,,0816.4,4.99,0.00,22.2,22.8,00.0,31.2,24.0,10.3,0000.0,0003.33,0001.06,0000.59
2021-12-27 14:57:00,,0816.3,5.00,0.00,22.2,22.5,00.0,31.2,23.9,10.2,0000.0,0003.55,0001.19,0000.68
2021-12-27 14:58:00,,0816.3,5.01,0.00,22.2,22.3,00.0,31.2,23.9,10.1,0000.0,0003.84,0001.32,0000.77
2021-12-27 14:59:00,,0816.3,4.99,0.00,22.2,22.1,00.0,31.2,23.9,10.1,0000.0,0004.48,0001.49,0000.85
